{"data":{"norad_id":58675,"epoch":"2026-05-25T00:29:09.459168Z","epoch_age_seconds":72479,"freshness":"FRESH","line1":"1 58675U 23211J   26145.02024837  .00000879  00000+0  41454-4 0  9999","line2":"2 58675  43.0040  13.7453 0000880 281.9966  78.0787 15.27584797134149","mean_motion":15.27584797,"eccentricity":8.8e-5,"inclination_deg":43.004,"raan_deg":13.7453,"arg_perigee_deg":281.9966,"mean_anomaly_deg":78.0787,"bstar":4.1454e-5,"rev_number":13414,"period_min":94.26645269238,"perigee_km":482.4309490211,"apogee_km":483.63851524596,"semimajor_km":6861.1717321335,"source":"CELESTRAK","updated_at":"2026-05-25T13:38:18.711456Z"}}